sat.trackr.live / text

‹ back to catalog

STARLINK-11089 [DTC]

NORAD 59426 · 2024-065F

PAYLOAD ACTIVE UNKNOWN

§ Identity

Operator
Country
US
Launch date
2024-04-07
Launch site
AFWTR
Launch vehicle
Mass (kg)
RCS (m²)

Purposes: comms

External: N2YO · Heavens-Above · Gunter

§ Orbital elements

Epoch: 2026-09-21T11:50:02.570784Z

Period
91.74 min
Inclination
53.1602°
Eccentricity
0.0001102
Mean motion
15.69706391 rev/d
Perigee alt
359.0 km
Apogee alt
360.5 km
Semi-major
6,737.9 km
B*
1.5118e-5
RAAN
208.8485°
Arg perigee
101.1024°
Mean anomaly
259.0118°
Rev number
14,227

§ Raw data

STARLINK-11089 [DTC]1 59426U 24065F   26264.49308531  .00001243  00000+0  15118-4 0  99952 59426  53.1602 208.8485 0001102 101.1024 259.0118 15.69706391142272

JSON: /api/v1/satellites/59426 · /tle

For live sub-satellite position, see the globe view (requires WebGL).

§ Visibility from observer

Set your observer location to see the next 7 days of passes ≥ 10°. The values pass through the URL so the page stays shareable.

No JS? Fill the form by hand. The geolocation button needs JavaScript.